TimeCST,TemperatureF,Dew PointF,Humidity,Sea Level PressureIn,VisibilityMPH,Wind Direction,Wind SpeedMPH,Gust SpeedMPH,PrecipitationIn,Events,Conditions,WindDirDegrees,DateUTC
12:54 AM,50.0,46.9,89,30.25,7.0,Calm,Calm,-,N/A,,Clear,0,2012-11-21 06:54:00
1:54 AM,48.9,46.0,90,30.25,7.0,Calm,Calm,-,N/A,,Clear,0,2012-11-21 07:54:00
2:54 AM,48.9,46.0,90,30.25,9.0,Calm,Calm,-,N/A,,Clear,0,2012-11-21 08:54:00
3:54 AM,48.9,46.9,93,30.25,10.0,Calm,Calm,-,N/A,,Clear,0,2012-11-21 09:54:00
4:54 AM,48.0,46.0,93,30.25,7.0,Calm,Calm,-,N/A,,Clear,0,2012-11-21 10:54:00
5:54 AM,48.0,46.0,93,30.27,8.0,Calm,Calm,-,N/A,,Clear,0,2012-11-21 11:54:00
6:54 AM,48.0,45.0,89,31.01,6.0,Calm,Calm,-,N/A,,Clear,0,2012-11-21 12:54:00
7:54 AM,57.0,52.0,83,30.31,10.0,NNW,3.5,-,N/A,,Clear,340,2012-11-21 13:54:00
8:54 AM,64.0,54.0,70,30.32,10.0,Variable,4.6,-,N/A,,Clear,0,2012-11-21 14:54:00
9:54 AM,68.0,53.1,59,30.32,10.0,North,3.5,-,N/A,,Clear,10,2012-11-21 15:54:00
10:54 AM,73.0,52.0,48,30.31,10.0,Calm,Calm,-,N/A,,Clear,0,2012-11-21 16:54:00
11:54 AM,75.0,50.0,41,30.29,10.0,Calm,Calm,-,N/A,,Clear,0,2012-11-21 17:54:00
12:54 PM,77.0,46.0,33,30.27,10.0,Variable,4.6,-,N/A,,Clear,0,2012-11-21 18:54:00
1:54 PM,77.0,39.0,25,30.24,10.0,NE,6.9,-,N/A,,Clear,40,2012-11-21 19:54:00
2:54 PM,77.0,39.9,26,30.23,10.0,Calm,Calm,-,N/A,,Clear,0,2012-11-21 20:54:00
3:54 PM,73.0,44.1,35,30.23,10.0,Calm,Calm,-,N/A,,Clear,0,2012-11-21 21:54:00
4:54 PM,64.9,48.9,56,30.23,10.0,Calm,Calm,-,N/A,,Clear,0,2012-11-21 22:54:00
5:54 PM,57.9,46.9,67,30.97,10.0,Calm,Calm,-,N/A,,Clear,0,2012-11-21 23:54:00
6:54 PM,54.0,46.9,77,30.26,10.0,Calm,Calm,-,N/A,,Clear,0,2012-11-22 00:54:00
7:54 PM,51.1,46.0,83,30.27,10.0,Calm,Calm,-,N/A,,Clear,0,2012-11-22 01:54:00
8:54 PM,48.9,45.0,86,30.28,10.0,Calm,Calm,-,N/A,,Clear,0,2012-11-22 02:54:00
9:54 PM,46.9,44.1,90,30.28,10.0,Calm,Calm,-,N/A,,Clear,0,2012-11-22 03:54:00
10:54 PM,45.0,43.0,93,30.27,10.0,Calm,Calm,-,N/A,,Clear,0,2012-11-22 04:54:00
11:54 PM,45.0,42.1,90,30.27,10.0,Calm,Calm,-,N/A,,Clear,0,2012-11-22 05:54:00